| time (UTC) | temp F | wind direction | speed MPH | gust MPH | rain 1hr in | rain 24hr in | rain mn in | humidity % | barometer mb |
| 20260505060504 | 50 | 348 | 2.0 | 6.0 | 0.00 | 0.04 | 0.00 | 93 | 1013.8 |
| 20260505055505 | 50 | 337 | 3.0 | 6.0 | 0.00 | 0.04 | 0.00 | 94 | 1013.7 |
| 20260505055005 | 50 | 337 | 2.0 | 6.0 | 0.00 | 0.04 | 0.00 | 94 | 1013.7 |
| 20260505054504 | 50 | 344 | 3.0 | 6.0 | 0.00 | 0.04 | 0.00 | 94 | 1013.7 |
| 20260505053504 | 50 | 331 | 4.0 | 6.0 | 0.00 | 0.04 | 0.00 | 94 | 1013.8 |
| 20260505053004 | 50 | 329 | 2.0 | 6.0 | 0.00 | 0.04 | 0.00 | 93 | 1013.8 |
| 20260505051504 | 50 | 349 | 3.0 | 6.0 | 0.00 | 0.04 | 0.00 | 93 | 1013.6 |
| 20260505051005 | 50 | 354 | 3.0 | 6.0 | 0.00 | 0.04 | 0.00 | 93 | 1013.6 |
| 20260505035005 | 52 | 4 | 2.0 | 5.0 | 0.00 | 0.04 | 0.00 | 93 | 1013.7 |
| 20260505034504 | 52 | 4 | 1.0 | 3.0 | 0.00 | 0.04 | 0.00 | 92 | 1013.7 |
| 20260505033504 | 52 | 1 | 0.0 | 3.0 | 0.00 | 0.04 | 0.00 | 92 | 1013.7 |
| 20260505033004 | 52 | 354 | 2.0 | 3.0 | 0.00 | 0.04 | 0.00 | 92 | 1013.7 |
| 20260505032505 | 52 | 336 | 2.0 | 3.0 | 0.00 | 0.04 | 0.00 | 92 | 1013.7 |
| 20260505032004 | 52 | 334 | 3.0 | 3.0 | 0.00 | 0.04 | 0.00 | 92 | 1013.7 |
| 20260505025005 | 52 | 342 | 2.0 | 5.0 | 0.00 | 0.04 | 0.00 | 91 | 1013.7 |
| 20260505024005 | 53 | 339 | 3.0 | 5.0 | 0.00 | 0.04 | 0.00 | 91 | 1013.6 |
| 20260505023504 | 53 | 335 | 2.0 | 5.0 | 0.00 | 0.04 | 0.00 | 91 | 1013.7 |
| 20260505021005 | 54 | 338 | 2.0 | 3.0 | 0.00 | 0.04 | 0.00 | 90 | 1013.8 |
| 20260505020505 | 54 | 0 | 1.0 | 3.0 | 0.00 | 0.04 | 0.00 | 90 | 1013.8 |
| 20260505020005 | 54 | 355 | 1.0 | 2.0 | 0.00 | 0.04 | 0.00 | 89 | 1013.9 |
| 20260505015005 | 54 | 355 | 1.0 | 3.0 | 0.00 | 0.04 | 0.00 | 89 | 1014.0 |
| 20260505013505 | 54 | 38 | 1.0 | 3.0 | 0.00 | 0.04 | 0.00 | 89 | 1014.0 |
| 20260505013004 | 54 | 40 | 0.0 | 3.0 | 0.00 | 0.04 | 0.00 | 89 | 1014.1 |
| 20260505012505 | 54 | 24 | 1.0 | 3.0 | 0.00 | 0.04 | 0.00 | 89 | 1014.2 |
| 20260505005505 | 54 | 355 | 1.0 | 3.0 | 0.00 | 0.04 | 0.00 | 89 | 1014.2 |
| 20260505005005 | 54 | 337 | 2.0 | 3.0 | 0.00 | 0.04 | 0.00 | 89 | 1014.3 |
| 20260505004005 | 54 | 350 | 1.0 | 5.0 | 0.00 | 0.04 | 0.00 | 88 | 1014.4 |
| 20260505003504 | 54 | 342 | 2.0 | 5.0 | 0.00 | 0.04 | 0.00 | 88 | 1014.4 |
| 20260505003004 | 54 | 4 | 1.0 | 5.0 | 0.00 | 0.04 | 0.00 | 88 | 1014.3 |
| 20260505002505 | 54 | 18 | 2.0 | 5.0 | 0.00 | 0.04 | 0.00 | 88 | 1014.3 |
| 20260505001504 | 54 | 11 | 2.0 | 3.0 | 0.00 | 0.04 | 0.00 | 88 | 1014.3 |
| 20260505000004 | 54 | 43 | 1.0 | 3.0 | 0.00 | 0.04 | 0.00 | 89 | 1014.4 |
| 20260504233504 | 54 | 52 | 2.0 | 5.0 | 0.00 | 0.04 | 0.00 | 91 | 1014.5 |
| 20260504233005 | 54 | 35 | 1.0 | 3.0 | 0.00 | 0.04 | 0.00 | 91 | 1014.5 |
| 20260504231005 | 54 | 46 | 1.0 | 5.0 | 0.00 | 0.04 | 0.00 | 91 | 1014.4 |
| 20260504230505 | 54 | 5 | 2.0 | 5.0 | 0.00 | 0.04 | 0.00 | 91 | 1014.3 |
| 20260504230005 | 54 | 5 | 2.0 | 3.0 | 0.00 | 0.04 | 0.00 | 91 | 1014.3 |
| 20260504225505 | 54 | 12 | 1.0 | 3.0 | 0.00 | 0.04 | 0.04 | 91 | 1014.4 |
| 20260504224505 | 54 | 30 | 2.0 | 5.0 | 0.00 | 0.04 | 0.04 | 91 | 1014.4 |
| 20260504223505 | 55 | 335 | 2.0 | 5.0 | 0.00 | 0.04 | 0.04 | 91 | 1014.4 |
| 20260504222505 | 55 | 325 | 2.0 | 5.0 | 0.00 | 0.04 | 0.04 | 91 | 1014.5 |
| 20260504221004 | 55 | 325 | 3.0 | 5.0 | 0.00 | 0.04 | 0.04 | 91 | 1014.5 |
| 20260504220505 | 55 | 332 | 3.0 | 5.0 | 0.00 | 0.04 | 0.04 | 91 | 1014.5 |
| 20260504220004 | 55 | 345 | 2.0 | 5.0 | 0.00 | 0.04 | 0.04 | 91 | 1014.5 |
| 20260504215004 | 55 | 347 | 3.0 | 5.0 | 0.00 | 0.04 | 0.04 | 91 | 1014.6 |
| 20260504214504 | 55 | 341 | 3.0 | 6.0 | 0.00 | 0.04 | 0.04 | 91 | 1014.6 |
| 20260504214005 | 55 | 349 | 2.0 | 6.0 | 0.00 | 0.04 | 0.04 | 91 | 1014.6 |
| 20260504212504 | 55 | 344 | 3.0 | 6.0 | 0.00 | 0.04 | 0.04 | 91 | 1014.6 |
| 20260504212004 | 55 | 353 | 3.0 | 6.0 | 0.01 | 0.04 | 0.04 | 91 | 1014.6 |
| 20260504211005 | 55 | 344 | 3.0 | 8.0 | 0.01 | 0.04 | 0.04 | 91 | 1014.6 |
| 20260504210505 | 56 | 350 | 5.0 | 8.0 | 0.02 | 0.04 | 0.04 | 91 | 1014.7 |
| 20260504205505 | 56 | 344 | 4.0 | 7.0 | 0.02 | 0.04 | 0.04 | 91 | 1014.7 |
| 20260504204505 | 56 | 355 | 4.0 | 9.0 | 0.02 | 0.04 | 0.04 | 91 | 1014.7 |
| 20260504203505 | 56 | 348 | 2.0 | 3.0 | 0.02 | 0.04 | 0.04 | 91 | 1014.6 |
| 20260504203004 | 56 | 336 | 2.0 | 5.0 | 0.02 | 0.04 | 0.04 | 91 | 1014.5 |
| 20260504202005 | 56 | 331 | 2.0 | 3.0 | 0.01 | 0.03 | 0.03 | 91 | 1014.5 |
| 20260504200505 | 57 | 353 | 2.0 | 3.0 | 0.01 | 0.02 | 0.02 | 90 | 1014.4 |
| 20260504200005 | 57 | 352 | 2.0 | 3.0 | 0.01 | 0.02 | 0.02 | 89 | 1014.4 |
| 20260504195504 | 57 | 19 | 1.0 | 3.0 | 0.01 | 0.02 | 0.02 | 89 | 1014.4 |
| 20260504195005 | 57 | 6 | 2.0 | 5.0 | 0.01 | 0.02 | 0.02 | 89 | 1014.3 |
| 20260504194504 | 57 | 13 | 2.0 | 7.0 | 0.01 | 0.02 | 0.02 | 89 | 1014.3 |
| 20260504193005 | 57 | 17 | 0.0 | 2.0 | 0.01 | 0.02 | 0.02 | 89 | 1014.2 |
| 20260504192504 | 57 | 17 | 0.0 | 2.0 | 0.01 | 0.02 | 0.02 | 89 | 1014.2 |
| 20260504192005 | 57 | 17 | 1.0 | 2.0 | 0.01 | 0.02 | 0.02 | 89 | 1014.2 |
| 20260504190505 | 58 | 92 | 2.0 | 3.0 | 0.00 | 0.02 | 0.02 | 88 | 1014.0 |
| 20260504185004 | 58 | 62 | 2.0 | 5.0 | 0.00 | 0.02 | 0.02 | 87 | 1013.9 |
| 20260504183005 | 58 | 30 | 1.0 | 3.0 | 0.00 | 0.02 | 0.02 | 87 | 1013.9 |
| 20260504181504 | 58 | 39 | 2.0 | 6.0 | 0.00 | 0.02 | 0.02 | 87 | 1013.8 |
| 20260504180505 | 58 | 351 | 2.0 | 5.0 | 0.00 | 0.02 | 0.02 | 87 | 1013.7 |
| 20260504180005 | 58 | 350 | 2.0 | 5.0 | 0.00 | 0.02 | 0.02 | 87 | 1013.7 |
| 20260504175505 | 58 | 30 | 3.0 | 5.0 | 0.00 | 0.02 | 0.02 | 87 | 1013.7 |
| 20260504174504 | 58 | 17 | 2.0 | 8.0 | 0.00 | 0.02 | 0.02 | 86 | 1013.7 |
| 20260504172004 | 59 | 8 | 4.0 | 12.0 | 0.01 | 0.02 | 0.02 | 84 | 1013.5 |
| 20260504171505 | 59 | 46 | 4.0 | 14.0 | 0.01 | 0.02 | 0.02 | 83 | 1013.5 |
| 20260504141005 | 66 | 345 | 2.0 | 6.0 | 0.00 | 0.00 | 0.00 | 64 | 1013.3 |
| 20260504140504 | 67 | 347 | 3.0 | 6.0 | 0.00 | 0.00 | 0.00 | 63 | 1013.3 |
| 20260504130504 | 68 | 30 | 2.0 | 6.0 | 0.00 | 0.00 | 0.00 | 54 | 1013.5 |
| 20260504110505 | 64 | 43 | 2.0 | 6.0 | 0.00 | 0.00 | 0.00 | 68 | 1013.9 |
| 20260504081505 | 57 | 162 | 0.0 | 3.0 | 0.00 | 0.00 | 0.00 | 85 | 1013.9 |